Regional Weather Roundup
Issued by NWS

Home | Current Version | Previous Version | Text Only | Print | Product List | Glossary Off
Versions: 1 2 3 4 5 6 7 8 9 10 11 12 13 14 15 16 17 18 19 20 21 22 23 24 25 26 27 28 29 30 31 32 33 34 35 36 37 38 39 40 41 42 43 44 45 46 47 48 49 50

000
ASUS43 KFSD 301502
RWRSD

WEATHER ROUNDUP FOR SOUTH DAKOTA
NATIONAL WEATHER SERVICE SIOUX FALLS SD
1000 AM CDT MON MAR 30 2015

NOTE: "FAIR" INDICATES FEW OR NO CLOUDS BELOW 12,000 FEET WITH NO
SIGNIFICANT WEATHER AND/OR OBSTRUCTIONS TO VISIBILITY.


SDZ001>005-009-010-012>017-301600-
NORTHWEST AND NORTH CENTRAL SOUTH DAKOTA

CITY           SKY/WX    TMP DP  RH WIND       PRES   REMARKS
BUFFALO          N/A     52  31  44 W18       29.95R
FAITH            N/A     54  28  36 W21       29.98R
MOBRIDGE       PTSUNNY   51  33  50 NW10      29.87S
$$

SDZ012>016-024>037-041>051-057-063-072>074-301600-
SOUTHWEST AND SOUTH CENTRAL SOUTH DAKOTA

CITY           SKY/WX    TMP DP  RH WIND       PRES   REMARKS
RAPID CTY ARPT PTSUNNY   57  26  30 NW15      30.03R
PIERRE         CLOUDY    48  31  51 W12       29.94R
CUSTER         PTSUNNY   50  20  30 W6        30.08R
PHILIP         PTSUNNY   52  28  39 W13       30.00R
PINE RIDGE       N/A    N/A N/A N/A MISG        N/A
SPEARFISH      FAIR      54  27  35 W17       30.07S
WINNER         FAIR      64  27  24 NW15      29.96R
$$

SDZ004>011-016>023-039-040-301600-
NORTHEAST SOUTH DAKOTA

CITY           SKY/WX    TMP DP  RH WIND       PRES   REMARKS
ABERDEEN       MOSUNNY   48  31  51 SW7       29.87F
WATERTOWN      MOSUNNY   50  30  46 SW9       29.88F
SISSETON         N/A     53  32  44 W13       29.82F
$$

SDZ017-020-022-023-036>040-048>070-301600-
SOUTHEAST SOUTH DAKOTA

CITY           SKY/WX    TMP DP  RH WIND       PRES   REMARKS
SIOUX FALLS    PTSUNNY   55  21  26 SW8G17    29.92F
HURON          CLOUDY    49  28  44 CALM      29.90F
MITCHELL       PTSUNNY   56  24  29 W16       29.92S
YANKTON        PTSUNNY   55  21  26 SW21G26   29.96F
$$

ABBREVIATIONS USED IN REMARKS
   TC - TEMPERATURE IN CELSIUS
  WCI - WIND CHILL INDEX
   HX - HEAT INDEX
  VSB - VISIBILITY




USA.gov is the U.S. government's official web portal to all federal, state and local government web resources and services.